TDRS 12

Last updated on Thu Nov 21 2024 00:02:35 GMT+0000 (Coordinated Universal Time)

1 39504U 14004A 24325.28706830 -.00000271 00000+0 00000+0 0 9999 2 39504 3.5854 7.1555 0006504 238.8204 235.9192 1.00263219 38526
UTC large
Height (km)
Speed (km/s)
/
Latitude / Longitude
Inclination (degrees)
Orbital Period (minutes)
Azimuth
Elevation
Range (km)
Doppler Factor

Next 0 passes for location: London (51.5072 / 0.1276)

Sorry there are no passes over London.